User: anonymous   Login
Location: Unspecified
(0.0000°N, 0.0000°E)
Time: 16:37:46
(UTC+00:00)
Language:

PLEIADES HR1 - Orbit

View from above orbital plane
View from above orbital plane
View from above satellite
View from above satellite

Ground track
Ground track

The orbit data is extracted from the following two-line orbital elements,

1 38012U 11076F   18110.47219396  .00000013  00000-0  12584-4 0  9999
2 38012  98.2021 186.1443 0001675  69.9676 290.1706 14.58547853337656
Epoch (UTC): 20 April 2018 11:19:57
Eccentricity: 0.0001675
inclination: 98.2021°
perigee height: 696 km
apogee height: 699 km
right ascension of ascending node: 186.1443°
argument of perigee: 69.9676°
revolutions per day: 14.58547853
mean anomaly at epoch: 290.1706°
orbit number at epoch: 33765

The dashed part of the orbit path shows where the satellite is in the earth's shadow,  

DLR